Hawk 10A

operational
NORAD ID: 60540 Int'l Des: 2024-149 Owner: HE360 Country: US
LEOCIRCULARRETROGRADESSO

About Hawk 10A

Description loading...

Live Position

Loading 3D Globe...

Upcoming Passes

Altitude History

Altitude vs Time

uPlot chart will show altitude changes over time

Two-Line Element Set

1 60540U 24149CA 25311.18643115 .00002506 00000-0 23129-3 0 9999
2 60540 97.7129 25.7941 0004957 93.1870 266.9918 14.95524706 66795
Epoch: Nov 7, 2025 • Age: 12 hours

Current Status

Altitude 583.7 km
Velocity 7.57 km/s
Sub-Earth Point -0.23°S, 88.63°W
Launch Date Aug 16, 2024
Age 1.2 years
Type other

Technical Details

Classification Payload
Mass 31.00 kg
Dry Mass 30.00 kg
Total Mass 31.00 kg
Length 0.45 m
Diameter 0.30 m
Span 1.00 m
Shape Box + 2 pan
Manufacturer UTIAS
Bus Type Hawk2G
Phase Status In Orbit
Owner/State HE360/US

Large Constellations

Loading constellations...